This is the latest recevied weather packets stored in our database for station/object K4AGR-13. If no packets are shown the sender has not sent any weather packets the latest 10 day(s).
| Time | Temp. | Humidity | Pressure | Rain* | Wind** | Luminosity | Snow |
|---|---|---|---|---|---|---|---|
| 1777662455 | 17.22° C | 80% | 1013 hPa | 0 mm | - | 105 W/m² | - |
| 1777662151 | 17.22° C | 80% | 1013.1 hPa | 0 mm | - | 117 W/m² | - |
| 1777661847 | 17.22° C | 78% | 1013.3 hPa | 0 mm | - | 155 W/m² | - |
| 1777661543 | 17.78° C | 77% | 1013.4 hPa | 0 mm | - | 156 W/m² | - |
| 1777661239 | 17.78° C | 76% | 1013.4 hPa | 0 mm | - | 170 W/m² | - |
| 1777660935 | 17.78° C | 76% | 1013.3 hPa | 0 mm | - | 186 W/m² | - |
| 1777660631 | 17.78° C | 75% | 1013.4 hPa | 0 mm | - | 213 W/m² | - |
| 1777660328 | 17.78° C | 75% | 1013.4 hPa | 0 mm | - | 260 W/m² | - |
| 1777660024 | 18.33° C | 77% | 1013.3 hPa | 0 mm | - | 278 W/m² | - |
| 1777659721 | 18.33° C | 76% | 1013.3 hPa | 0 mm | - | 175 W/m² | - |
| 1777659418 | 18.89° C | 74% | 1013.6 hPa | 0 mm | - | 173 W/m² | - |
| 1777659115 | 18.89° C | 74% | 1013.3 hPa | 0 mm | - | 235 W/m² | - |
| 1777658814 | 18.89° C | 73% | 1013.5 hPa | 0 mm | - | 267 W/m² | - |
| 1777658509 | 18.89° C | 71% | 1013.7 hPa | 0 mm | - | 222 W/m² | - |
| 1777658206 | 18.89° C | 71% | 1013.6 hPa | 0 mm | - | 215 W/m² | - |
| 1777657903 | 18.89° C | 70% | 1013.5 hPa | 0 mm | - | 321 W/m² | - |
| 1777657600 | 18.89° C | 71% | 1013.5 hPa | 0 mm | - | 306 W/m² | - |
| 1777657297 | 18.89° C | 70% | 1013.7 hPa | 0 mm | - | 220 W/m² | - |
| 1777656995 | 18.33° C | 71% | 1013.6 hPa | 0 mm | - | 278 W/m² | - |
| 1777656691 | 18.89° C | 70% | 1013.5 hPa | 0 mm | - | 364 W/m² | - |
| 1777656387 | 18.89° C | 70% | 1013.7 hPa | 0 mm | - | 475 W/m² | - |
| 1777656082 | 18.89° C | 71% | 1013.6 hPa | 0 mm | - | 661 W/m² | - |
| 1777655779 | 18.89° C | 71% | 1013.5 hPa | 0 mm | - | 630 W/m² | - |
| 1777655476 | 18.89° C | 72% | 1013.7 hPa | 0 mm | - | 455 W/m² | - |
| 1777655173 | 18.33° C | 74% | 1013.8 hPa | 0 mm | - | 503 W/m² | - |
* Rain latest hour (hover to see other rain measurements)
** Current wind speed in m/s (hover to see current wind gust speed)